Miamisburg, OH

12:09 AM EST on January 18, 2017 (GMT -0500)
Dayton-Wright Brothers

Weather History for KMGY - January, 2014

Change the Weather History Date:

Wednesday, January 22, 2014

  Actual Average (KFFO) Record (KFFO)
Temperature  
Mean Temperature 6 °F -  
Max Temperature 15 °F 33 °F 68 °F (1999)
Min Temperature -4 °F 16 °F -6 °F (2011)
Degree Days  
Heating Degree Days 60    
Moisture  
Dew Point 1 °F    
Average Humidity 73    
Maximum Humidity 88    
Minimum Humidity 54    
Precipitation  
Precipitation 0.00 in - - ()
Sea Level Pressure  
Sea Level Pressure 30.09 in    
Wind  
Wind Speed 6 mph (SW)    
Max Wind Speed 15 mph    
Max Gust Speed -    
Visibility 7 miles    
Events Fog , Snow    
Averages and records for this station are not official NWS values.
T = Trace of Precipitation, MM = Missing Value Source: NWS Daily Summary

Daily Weather History Graph

Daily Weather History Graph

Search for Another Location

Airport or City:

Trip Planner

Search our weather history database for the weather conditions in past years. The results will help you decide how hot, cold, wet, or windy it might be!

Date:

Astronomy

Jan. 22, 2014 Rise Set
Actual Time 7:52 AM EST 5:45 PM EST
Civil Twilight 7:23 AM EST 6:14 PM EST
Nautical Twilight 6:50 AM EST 6:47 PM EST
Astronomical Twilight 6:18 AM EST 7:19 PM EST
Moon No Moon Rise 10:54 AM EST (1/22)
Length of Visible Light 10h 51m
Length of Day
9h 52m
Waning Gibbous, 65% of the Moon is Illuminated
Jan 22
Waning Gibbous
Jan 24
Last Quarter
Jan 30
New
Feb 6
First Quarter
Feb 14
Full

Hourly Weather History & Observations

Time (EST) Temp. Windchill Dew Point Humidity Pressure Visibility Wind Dir Wind Speed Gust Speed Precip Events Conditions
12:53 AM 1.9 °F -5.6 °F -8.0 °F 63% 30.20 in 10.0 mi North 3.5 mph - N/A   Clear
1:53 AM 1.9 °F -5.6 °F -7.1 °F 66% 30.20 in 10.0 mi WNW 3.5 mph - N/A   Clear
2:53 AM -0.0 °F -9.9 °F -6.0 °F 76% 30.21 in 10.0 mi WNW 4.6 mph - N/A   Clear
3:53 AM -0.9 °F - -7.1 °F 75% 30.20 in 10.0 mi Calm Calm - N/A   Clear
4:53 AM -2.0 °F -10.1 °F -9.0 °F 72% 30.19 in 10.0 mi WSW 3.5 mph - N/A   Clear
5:53 AM -0.9 °F - -8.0 °F 72% 30.18 in 10.0 mi Calm Calm - N/A   Clear
6:53 AM -2.9 °F - -9.0 °F 75% 30.18 in 10.0 mi Calm Calm - N/A   Clear
7:53 AM -4.0 °F - -8.0 °F 83% 30.19 in 10.0 mi Calm Calm - N/A   Clear
8:53 AM -0.9 °F -11.0 °F -7.1 °F 75% 30.18 in 10.0 mi South 4.6 mph - N/A   Clear
9:53 AM 5.0 °F -5.6 °F -5.1 °F 63% 30.16 in 10.0 mi South 5.8 mph - N/A   Overcast
10:53 AM 6.1 °F -5.6 °F -4.0 °F 63% 30.15 in 10.0 mi South 6.9 mph - N/A   Overcast
11:53 AM 8.1 °F -4.3 °F -2.9 °F 61% 30.14 in 10.0 mi South 8.1 mph - N/A   Overcast
12:53 PM 10.0 °F -3.7 °F -2.9 °F 56% 30.10 in 10.0 mi South 10.4 mph - N/A   Overcast
1:53 PM 10.9 °F -3.4 °F -2.9 °F 54% 30.06 in 10.0 mi South 11.5 mph - N/A   Overcast
2:53 PM 10.9 °F -3.4 °F -2.0 °F 56% 30.05 in 10.0 mi South 11.5 mph - N/A   Overcast
3:53 PM 12.0 °F -2.0 °F -0.9 °F 56% 30.06 in 10.0 mi South 11.5 mph - N/A   Overcast
4:53 PM 12.0 °F -4.0 °F 1.0 °F 61% 30.05 in 10.0 mi South 15.0 mph - N/A   Overcast
5:53 PM 12.9 °F 2.6 °F 1.9 °F 62% 30.05 in 10.0 mi SW 6.9 mph - N/A   Overcast
6:53 PM 12.0 °F -0.4 °F 5.0 °F 73% 30.07 in 4.0 mi SSW 9.2 mph - 0.00 in Snow Light Snow
7:53 PM 12.0 °F -2.7 °F 6.1 °F 77% 30.08 in 6.0 mi SSW 12.7 mph - 0.00 in   Haze
8:53 PM 12.0 °F -1.3 °F 7.0 °F 80% 30.07 in 6.0 mi SW 10.4 mph - 0.00 in   Haze
9:53 PM 12.9 °F -0.9 °F 9.0 °F 84% 30.05 in 2.5 mi SSW 11.5 mph - 0.00 in Snow Light Snow
10:05 PM 12.9 °F 0.7 °F 9.0 °F 84% 29.99 in 1.8 mi SSW 9.2 mph - 0.00 in Snow Light Snow
10:41 PM 14.0 °F -0.2 °F 10.0 °F 84% 29.99 in 2.0 mi SSW 12.7 mph - 0.00 in Snow Light Snow
10:53 PM 14.0 °F -0.2 °F 10.0 °F 84% 30.05 in 1.8 mi SSW 12.7 mph - 0.00 in Snow Light Snow
11:03 PM 14.0 °F 0.5 °F 10.0 °F 84% 29.99 in 2.5 mi SW 11.5 mph - 0.00 in Snow Light Snow
11:29 PM 15.1 °F 1.1 °F 10.9 °F 84% 29.99 in 1.8 mi SW 12.7 mph - 0.00 in Snow Light Snow
11:34 PM 15.1 °F 1.1 °F 10.9 °F 84% 29.99 in 3.0 mi SW 12.7 mph - 0.00 in Snow Light Snow
11:45 PM 15.1 °F -0.1 °F 10.9 °F 84% 29.99 in 1.8 mi SW 15.0 mph - 0.00 in Snow Light Snow
11:51 PM 15.8 °F 1.4 °F 12.2 °F 86% 30.00 in 0.5 mi WSW 13.8 mph - 0.00 in Fog , Snow Snow
11:53 PM 15.1 °F -0.1 °F 12.0 °F 88% 30.06 in 0.5 mi WSW 15.0 mph - 0.00 in Fog , Snow Snow